Vorticity
8 25 17 7 15 21 17 12 17 20 15 14 20 17 20 11 19 17 8 3 -2 -1 2 -3 -34 -21 9 -5 -6 20 9 13 13 14 3 7 8 8
12 23 17 2 6 19 22 16 12 14 14 17 16 17 17 33 19 18 26 16 8 7 5 -4 -4 -13 1 -38 -5 -30 4 1 -0 12 11 -0 4 7
9 23 20 20 5 11 21 32 37 43 50 48 32 15 16 11 24 12 14 23 18 16 3 6 3 8 6 4 -10 13 -17 13 30 18 11 14 8 8
19 14 12 17 8 12 31 45 58 72 68 32 19 30 28 21 14 13 54 -1 33 28 39 9 3 4 6 4 3 17 -14 -14 -24 -34 -35 -14 4 -9
10 17 15 15 13 14 48 15 8 9 23 48 46 23 26 35 1 -3 -2 52 1 -0 4 18 16 9 9 6 -2 14 6 13 14 18 16 6 11 7
-1 18 16 18 18 15 48 16 13 15 15 26 26 34 36 31 39 -7 -10 11 19 25 8 14 20 21 13 10 5 3 10 12 5 7 8 -1 10 13
7 -5 9 12 23 15 37 28 8 19 9 17 21 24 18 26 23 35 10 11 8 11 28 19 17 21 24 20 28 26 21 17 19 19 24 26 13 6
10 7 -1 10 5 23 22 39 14 14 15 12 12 18 17 8 19 15 5 17 22 9 9 12 17 16 12 12 6 8 16 12 13 14 15 19 21 15
4 7 3 8 6 3 23 19 27 14 8 19 22 10 14 26 14 11 28 15 12 5 23 21 10 8 1 1 6 4 7 14 12 12 14 14 12 14
15 7 5 6 9 12 -2 36 24 16 14 13 9 11 4 6 5 14 18 17 17 23 25 19 13 11 13 13 10 9 2 27 13 22 10 3 23 9
-0 7 17 8 6 7 9 2 13 31 17 19 19 18 16 14 6 4 5 6 7 10 11 9 10 6 6 9 12 10 1 22 19 -6 48 7 18 5
3 5 3 8 11 6 6 6 5 6 30 26 17 22 12 11 10 10 12 16 18 16 14 17 16 17 15 17 18 12 -5 11 34 22 7 -0 3 7
1 2 2 7 3 12 9 8 5 5 1 12 28 32 19 15 13 14 17 12 14 19 22 21 13 15 25 23 23 19 19 19 -25 13 6 2 10 9
1 2 3 4 4 5 3 12 9 6 6 3 6 14 26 32 25 6 9 4 13 7 7 12 11 13 13 20 22 18 17 19 22 22 12 19 2 23
4 4 1 2 3 3 1 3 6 10 10 5 5 3 6 -1 19 38 43 42 19 -8 8 12 7 17 11 6 8 10 15 19 10 7 18 19 9 24
5 4 4 3 1 2 3 3 4 3 4 9 10 6 3 5 4 7 9 8 -1 12 24 40 55 51 77 63 31 42 31 13 0 29 29 14 12 12
4 3 7 4 8 3 2 2 4 3 3 4 5 8 9 6 3 4 6 6 8 7 7 8 7 3 -2 1 2 1 -2 11 32 13 10 10 8 7
6 2 10 4 6 5 4 4 2 2 4 6 5 5 7 8 7 6 5 4 4 5 6 5 6 6 7 8 8 8 8 8 9 9 10 10 8 5
24 12 -1 6 1 7 1 1 7 2 3 4 3 7 6 8 9 7 6 6 6 5 3 3 4 4 3 4 4 3 4 4 4 5 7 7 4 3
19 23 34 26 15 7 -0 14 -0 4 2 1 -0 4 7 5 2 5 13 9 5 4 6 7 6 5 3 1 3 3 4 2 4 3 5 6 7 5
17 24 22 12 14 16 21 7 0 14 14 14 13 3 -1 9 8 5 5 3 10 9 10 9 9 10 12 11 12 10 11 14 15 18 17 18 15 12
13 10 12 18 23 25 22 24 22 21 15 13 16 9 17 5 9 9 8 10 5 1 3 3 5 8 4 1 1 4 7 2 2 2 1 5 4 5
9 12 10 10 12 12 12 14 15 15 16 13 14 17 16 18 19 13 13 8 9 14 11 7 3 1 4 8 5 3 2 4 1 2 4 -1 -0 1
Height
5633 5629 5625 5620 5614 5607 5599 5591 5587 5589 5589 5591 5592 5597 5604 5610 5618 5625 5631 5640 5649 5654 5658 5665 5668 5671 5677 5682 5687 5692 5695 5695 5698 5700 5704 5707 5709 5711
5624 5619 5614 5608 5601 5593 5583 5573 5564 5558 5558 5564 5566 5572 5579 5588 5597 5602 5609 5621 5627 5633 5639 5643 5648 5654 5661 5666 5671 5675 5680 5683 5684 5687 5689 5693 5696 5699
5615 5609 5603 5596 5588 5576 5563 5548 5536 5527 5523 5536 5539 5548 5557 5568 5578 5584 5592 5599 5607 5614 5622 5626 5631 5639 5645 5646 5653 5661 5668 5670 5670 5673 5676 5679 5683 5686
5607 5600 5593 5583 5573 5560 5543 5527 5516 5505 5501 5508 5517 5527 5537 5552 5560 5565 5573 5582 5589 5597 5603 5609 5614 5622 5630 5634 5637 5643 5649 5657 5658 5660 5661 5670 5672 5673
5599 5590 5582 5572 5560 5547 5531 5521 5513 5505 5501 5500 5507 5514 5524 5536 5544 5551 5556 5563 5571 5582 5585 5590 5597 5602 5608 5615 5621 5628 5634 5640 5645 5647 5648 5653 5657 5662
5592 5582 5573 5562 5551 5539 5526 5520 5513 5507 5503 5502 5505 5510 5517 5525 5531 5539 5545 5548 5554 5560 5569 5576 5583 5589 5594 5599 5605 5611 5616 5620 5624 5629 5635 5641 5645 5647
5585 5576 5567 5556 5545 5536 5525 5519 5514 5509 5506 5504 5505 5507 5511 5515 5520 5528 5533 5537 5541 5547 5555 5562 5569 5574 5580 5583 5589 5594 5597 5601 5607 5612 5617 5622 5627 5630
5578 5572 5563 5553 5542 5533 5524 5518 5514 5511 5507 5505 5504 5505 5507 5510 5513 5518 5522 5527 5535 5538 5540 5547 5552 5560 5564 5569 5573 5577 5582 5586 5590 5595 5599 5603 5608 5613
5571 5565 5558 5551 5542 5532 5523 5516 5512 5510 5507 5504 5503 5504 5505 5507 5509 5512 5514 5517 5522 5526 5529 5536 5539 5544 5547 5552 5558 5562 5566 5570 5574 5579 5584 5588 5591 5594
5566 5559 5553 5547 5540 5532 5523 5516 5511 5506 5503 5501 5500 5500 5500 5501 5503 5504 5506 5509 5512 5516 5518 5523 5526 5530 5532 5539 5543 5547 5551 5555 5558 5562 5569 5574 5576 5578
5560 5554 5548 5543 5538 5530 5523 5515 5510 5505 5501 5498 5496 5495 5494 5495 5496 5498 5500 5502 5504 5506 5509 5512 5515 5517 5519 5524 5528 5531 5536 5540 5544 5547 5553 5560 5561 5565
5554 5549 5543 5538 5533 5529 5522 5516 5509 5503 5500 5496 5494 5491 5490 5490 5489 5490 5493 5494 5495 5497 5500 5502 5504 5505 5506 5509 5512 5515 5519 5526 5530 5533 5539 5545 5548 5551
5546 5542 5538 5533 5528 5523 5519 5515 5509 5503 5498 5494 5491 5488 5487 5485 5484 5484 5485 5486 5487 5488 5490 5490 5493 5495 5494 5497 5499 5502 5506 5512 5516 5522 5526 5530 5534 5537
5536 5533 5530 5526 5522 5518 5513 5510 5507 5503 5497 5492 5489 5486 5482 5481 5480 5480 5480 5480 5481 5481 5482 5483 5484 5485 5486 5488 5490 5493 5495 5499 5504 5509 5514 5518 5522 5524
5526 5523 5519 5517 5515 5510 5507 5503 5500 5498 5495 5491 5487 5483 5481 5479 5476 5475 5474 5474 5475 5474 5474 5475 5476 5477 5478 5480 5482 5484 5487 5490 5494 5498 5502 5505 5509 5512
5513 5511 5509 5506 5504 5502 5499 5496 5493 5490 5488 5486 5484 5480 5477 5475 5474 5472 5471 5469 5468 5467 5466 5466 5466 5468 5468 5469 5473 5473 5477 5479 5483 5487 5491 5494 5497 5500
5498 5497 5495 5494 5492 5490 5488 5486 5483 5482 5479 5478 5476 5474 5473 5471 5468 5467 5466 5464 5464 5464 5463 5463 5462 5462 5463 5464 5466 5468 5469 5470 5474 5479 5482 5484 5487 5489
5478 5479 5479 5479 5478 5476 5475 5474 5472 5470 5469 5468 5466 5464 5463 5464 5463 5462 5459 5457 5457 5457 5457 5457 5457 5457 5458 5459 5460 5462 5463 5465 5468 5470 5472 5474 5476 5478
5459 5459 5460 5460 5460 5460 5459 5459 5459 5457 5456 5456 5456 5454 5453 5452 5451 5451 5451 5451 5450 5448 5448 5448 5449 5449 5450 5451 5452 5453 5455 5456 5457 5459 5461 5462 5463 5464
5440 5439 5439 5441 5441 5441 5441 5442 5442 5442 5441 5441 5442 5441 5440 5440 5440 5439 5439 5439 5439 5440 5440 5440 5439 5439 5440 5440 5441 5441 5442 5443 5444 5446 5447 5448 5450 5450
5423 5422 5421 5421 5422 5422 5423 5424 5424 5424 5424 5424 5425 5426 5426 5426 5426 5426 5427 5427 5427 5427 5427 5428 5428 5428 5428 5429 5429 5430 5431 5432 5432 5433 5434 5434 5435 5435
5405 5405 5404 5404 5404 5404 5404 5404 5405 5406 5406 5406 5407 5408 5409 5409 5410 5411 5411 5412 5412 5414 5414 5414 5414 5415 5415 5415 5416 5416 5416 5418 5418 5418 5419 5418 5418 5418
5390 5390 5387 5388 5389 5388 5388 5388 5388 5389 5389 5389 5390 5391 5391 5391 5392 5393 5394 5394 5395 5397 5398 5398 5399 5399 5399 5399 5400 5401 5401 5401 5402 5403 5402 5400 5400 5399